This is the latest recevied weather packets stored in our database for station/object W4FXD. If no packets are shown the sender has not sent any weather packets the latest 10 day(s).
| Time | Temp. | Humidity | Pressure | Rain* | Wind** | Luminosity | Snow |
|---|---|---|---|---|---|---|---|
| 1777642664 | 13.89° C | 67% | 1015.2 hPa | 0 mm | - | 394 W/m² | - |
| 1777642361 | 13.33° C | 67% | 1015.2 hPa | 0 mm | - | 381 W/m² | - |
| 1777642057 | 13.33° C | 69% | 1015.2 hPa | 0 mm | - | 367 W/m² | - |
| 1777641754 | 13.89° C | 69% | 1015.3 hPa | 0 mm | - | 346 W/m² | - |
| 1777641454 | 13.33° C | 69% | 1015.1 hPa | 0 mm | - | 324 W/m² | - |
| 1777641150 | 12.78° C | 73% | 1015.3 hPa | 0 mm | - | 310 W/m² | - |
| 1777640846 | 12.78° C | 72% | 1015 hPa | 0 mm | - | 288 W/m² | - |
| 1777640543 | 12.78° C | 71% | 1015.1 hPa | 0 mm | - | 275 W/m² | - |
| 1777640240 | 12.78° C | 70% | 1015.3 hPa | 0 mm | - | 257 W/m² | - |
| 1777639936 | 12.78° C | 74% | 1015 hPa | 0 mm | - | 261 W/m² | - |
| 1777639633 | 12.22° C | 72% | 1014.9 hPa | 0 mm | - | 217 W/m² | - |
| 1777639330 | 12.22° C | 73% | 1015.2 hPa | 0 mm | - | 209 W/m² | - |
| 1777639026 | 11.67° C | 73% | 1015 hPa | 0 mm | - | 239 W/m² | - |
| 1777638723 | 11.11° C | 76% | 1015.2 hPa | 0 mm | - | 184 W/m² | - |
| 1777638419 | 10.56° C | 81% | 1015.3 hPa | 0 mm | - | 164 W/m² | - |
| 1777638115 | 10° C | 80% | 1015.1 hPa | 0 mm | - | 145 W/m² | - |
| 1777637812 | 10° C | 82% | 1015.3 hPa | 0 mm | - | 85 W/m² | - |
| 1777637508 | 10° C | 84% | 1015.3 hPa | 0 mm | - | 83 W/m² | - |
| 1777637206 | 9.44° C | 85% | 1015.3 hPa | 0 mm | - | 72 W/m² | - |
| 1777636903 | 9.44° C | 86% | 1015.4 hPa | 0 mm | - | 59 W/m² | - |
| 1777636598 | 9.44° C | 87% | 1014.9 hPa | 0 mm | - | 53 W/m² | - |
| 1777636295 | 8.89° C | 86% | 1015.1 hPa | 0 mm | - | 42 W/m² | - |
| 1777635990 | 8.89° C | 88% | 1014.8 hPa | 0 mm | - | 39 W/m² | - |
| 1777635686 | 8.89° C | 87% | 1015.1 hPa | 0 mm | - | 32 W/m² | - |
| 1777635382 | 8.89° C | 87% | 1014.9 hPa | 0 mm | - | 28 W/m² | - |
* Rain latest hour (hover to see other rain measurements)
** Current wind speed in m/s (hover to see current wind gust speed)